MIDAS 4 DEB, 195

Orbit data source: Space-Track

MIDAS 4 DEB, 195 is space debris in LEO originally from a launch on Sat, 21 Oct 1961 UTC launched from the Air Force Western Test Range (AFWTR). Debris objects in space refer to the collection of defunct objects orbiting the Earth. Examples of debris include non-operational satellites, rocket bodies, and fragments generated from explosions, collisions, or faulty payload assembly.

Loading next visibility...
Identifier
195, 1961-028D
Orbit
LEO
Country
Flag of USUS
Related business
Manufacturer
Unknown
Mission
Spacecraft
Bus & Motor
Unknown
Mass
~10 kg wet, ~10 kg dry
Launch date (UTC)
1961-10-21 (64 years ago)
Launch vehicle
Unknown
Launch site
Air Force Western Test Range (AFWTR)
Object type
Payload
Rocket body
Debris
Shape & HBR
Unknown shape, 1.1 m
Radar Cross Section
Medium (>0.1 m² and <1 m²)

Expand to show TLE details & history
Last TLE update: 19 hours ago

TLE from 19 hours ago
0 MIDAS 4 DEB
1 00195U 61028D   25303.98285425  .00000001  00000-0  20217-2 0  9993
2 00195  95.8361 156.3974 0127325 297.2325  61.5603  8.65622091 23199
Epoch: 2025-10-30T23:35Z
TLE epoch observation values (Epoch: 2025-10-30T23:35:18.607Z)
Latitude
0.00003°
Longitude
123.03605°
Altitude
3,584.103 km
Speed
6.345 km/s
True Right ascension
10h 25m 35s
True Declination
0° 00' 00"
Sunlit
Object was in daylight at epoch
Visualization orbit readout
Latitude
Unknown
Longitude
Unknown
Altitude
Unknown
Speed
Unknown
Apparent Right ascension
Unknown
Apparent Declination
Unknown
Sunlit
N/A
Visualization observer readout
Local Sidereal Time
14:29:30
Azimuth
Unknown
Elevation
Unknown
Doppler factor
Unknown
Orbital elements
Apogee altitude
3,766.869 km
Perigee altitude
3,511.774 km
Semi-major axis
10,017.459 km
Eccentricity
0.01273
Inclination
95.8361°
RAAN
156.3974°
Arg. of periapsis
297.2325°
True anomaly
62.85294°
Mean anomaly
61.5603°
Eccentric anomaly
62.20565°
Mean motion
2.16475 °/min
Orbital period
166.3 mins
BSTAR
0.0020217
Loading maneuver chart data...
Computing Atmospheric mass density...
Loading historical data...
Loading historical data...
Loading historical data...
Loading historical data...
Loading historical data...
Loading historical data...
Loading historical data...

Documentation

Showing up to 5 results
|